Regional Weather Roundup
Issued by NWS

Home | Current Version | Previous Version | Text Only | Print | Product List | Glossary On
Versions: 1 2 3 4 5 6 7 8 9 10 11 12 13 14 15 16 17 18 19 20 21 22 23 24 25 26 27 28 29 30 31 32 33 34 35 36 37 38 39 40 41 42 43 44 45 46 47 48 49 50
000
ASUS43 KTOP 240108
RWRKS

WEATHER ROUNDUP FOR KANSAS
NATIONAL WEATHER SERVICE GOODLAND KS
800 PM CDT MON APR 23 2018

NOTE:  "FAIR" INDICATES FEW OR NO CLOUDS BELOW 12,000 FEET WITH NO
SIGNIFICANT WEATHER AND/OR OBSTRUCTIONS TO VISIBILITY.

KSZ001>006-013>018-027>032-041>047-240200-
NORTHWEST KANSAS

CITY           SKY/WX    TMP DP  RH WIND       PRES   REMARKS
GOODLAND       PTCLDY    63  40  42 S13       30.03R
HAYS           CLEAR     65  43  44 SE9       30.05R
HILL CITY        N/A     64  41  42 SE6       30.05R
RUSSELL        CLEAR     66  42  41 E6        30.03S
$$

KSZ061>065-074>080-084>089-240200-
SOUTHWEST KANSAS

CITY           SKY/WX    TMP DP  RH WIND       PRES   REMARKS
DODGE CITY     CLEAR     62  40  44 SE8       30.04S
ELKHART        MOCLDY    69  48  47 SE10      30.02F
GARDEN CITY    CLEAR     64  41  42 S7        30.04R
GREAT BEND     CLEAR     67  43  41 E3        30.05R
LIBERAL        CLEAR     65  45  48 S7        30.04R
PRATT          CLEAR     66  43  42 SE3       30.05R
$$

KSZ066>073-081>083-090>101-240200-
SOUTHEAST KANSAS

CITY           SKY/WX    TMP DP  RH WIND       PRES   REMARKS
CHANUTE        CLEAR     68  37  32 N6        30.00R
COFFEYVILLE    CLEAR     67  46  47 N5        29.99R
HUTCHINSON     CLEAR     66  42  41 NE5       30.03R
MEDICINE LODGE   N/A     69  45  41 CALM      30.03R
NEWTON         CLEAR     63  47  55 N6        30.04S
PARSONS        CLEAR     68  42  38 N5        30.00R
WICHITA INTL   PTCLDY    69  42  37 N7        30.02S
WICHITA JABRA  CLEAR     67  42  40 N3        30.02S
WICHITA MCCONL CLEAR     67  41  39 N7        30.02S
WINFIELD       PTCLDY    67  48  50 CALM      30.02S
$$

KSZ007>012-019>026-033>040-048>060-102>105-240200-
NORTHEAST KANSAS

CITY           SKY/WX    TMP DP  RH WIND       PRES   REMARKS
CONCORDIA      CLEAR     67  35  30 E3        30.04R
EMPORIA        CLEAR     65  38  36 E5        30.01S
LAWRENCE       CLEAR     68  32  26 NE5       30.01R
MANHATTAN      CLEAR     68  34  28 N3        30.02S
MARYSVILLE     CLEAR     64  32  29 E5        30.04R
OLATHE IND     CLEAR     66  36  32 N9        30.01S
OLATHE EXE     CLEAR     68  32  26 NE8       30.01R
SALINA         CLEAR     69  43  38 S5        30.03S
TOPEKA BILLARD CLEAR     70  34  26 NE5       30.01R
TOPEKA FORBES  CLEAR     71  32  23 NE3       30.01R
$$



USA.gov is the U.S. government's official web portal to all federal, state and local government web resources and services.